Weather in Rudnoye

Russia / Orenburg Oblast     52°21′45″N   56°21′09″E
temp.,
°C
wind,
m/s
gust,
m/s
humid.,
%
clouds,
%
prec.,
mm/h
press.,
hPa
HPBL,
m
26 february, fri
fri2623:00−26sse339966 0.0 103262
02:00−26sse3698100 0.0 1030176
05:00−25se3699100 0.2 1029209
08:00−25se349997 0.1 1027120
11:00−21ese479697 0.2 1026287
14:00−18sse5893100 0.1 1025417
17:00−16se5993100 0.1 1024424
20:00−17se4109799 0.1 1023322
27 february, sat
sat2723:00−20ese479797 0.1 1022115
02:00−19ese5119697 0.1 1018269
05:00−16se7149499 0.1 1015373
08:00−15se81595100 2.4 1010446
11:00−11sse81494100 5.4 1007573
14:00−6sse71194100 1.1 1004472
17:00−3sse5896100 1.8 1003306
20:00−1wsw61098100 1.0 1002483
28 february, sun
sun2823:00−1sw5898100 1.4 1002349
02:00−1wsw5998100 0.9 1001454
05:00−2sw3898100 1.5 1001255
08:00−4ssw3698100 0.4 1000128
11:00−2ssw5797100 1.6 1000455
14:00−3wsw71095100 1.5 1001450
17:00−8wsw5795100 1.7 1003309
20:00−11sw4698100 0.1 1006128
1 march, mon
mon123:00−12s229798 0.3 100922
02:00−13s2297100 0.1 101122
05:00−13s239699 0.4 101326
08:00−14sse229691 0.2 101420
11:00−12sse119290 0.4 1016156
14:00−10wsw228898 0.1 1017317
17:00−11wnw459399 0.3 1018301
20:00−14nw339690 0.1 101954
2 march, tue
tue223:00−19nw229487 0.1 102120
02:00−22wnw229910 0.0 102020
05:00−24wnw2210014 0.0 102120
08:00−25wsw1110049 0.0 102120
11:00−21ssw239975 0.0 1019175
14:00−19ssw4596100 0.0 1018293
17:00−17s5897100 0.1 1016350
20:00−17s61097100 0.3 1014368